Lid_Strength_Index
9 8 6 5 3 1 2 2 1 1 1 0 0 -0 0 -0 -0 -0 -0 -0 -0 -0 0 0 0 -0 0 -0 0 0 0 0
10 10 10 9 3 2 2 1 2 2 1 0 0 0 0 0 0 0 0 1 0 0 -0 0 0 -0 0 0 0 0 0 0
10 9 10 10 4 2 2 3 3 2 1 1 1 0 0 0 -0 1 1 1 1 1 1 0 0 0 -0 0 0 0 1 1
10 9 9 8 6 3 2 3 3 3 1 2 1 1 1 1 1 0 -0 0 1 2 1 1 0 0 -0 -0 0 0 1 1
8 8 8 8 7 4 3 2 2 2 3 2 2 2 2 1 1 0 -0 0 1 1 1 2 1 -0 0 0 0 1 1 2
8 8 8 8 7 3 5 3 2 2 2 2 2 2 2 2 2 2 1 0 0 1 1 2 1 1 1 1 1 1 1 2
8 8 8 7 7 7 6 9 9 7 4 3 3 3 2 2 1 1 1 1 0 0 1 1 1 1 1 1 1 1 2 3
8 7 7 7 6 5 4 4 4 4 5 6 5 4 3 1 1 0 0 0 -0 1 0 1 1 1 1 1 1 1 1 2
5 4 4 3 3 3 2 3 3 3 3 4 4 4 4 3 3 1 0 0 0 0 1 1 1 1 1 1 1 2 2 3
5 4 4 4 3 2 3 3 2 2 2 3 3 3 3 2 2 1 1 0 0 0 0 1 1 1 1 1 2 2 3 2
6 5 5 4 4 3 3 3 2 2 2 2 2 2 2 3 2 2 1 0 0 0 0 1 1 1 1 1 2 2 3 3
6 6 5 5 4 3 3 2 2 2 2 3 3 3 4 3 3 2 1 0 0 0 0 0 1 1 1 1 1 2 2 3
7 7 6 6 4 4 4 4 4 3 3 3 4 4 3 2 2 2 1 1 0 0 0 1 1 2 1 2 2 3 3 2
7 7 6 7 7 6 6 6 6 6 6 5 4 5 4 4 3 3 2 1 1 1 0 1 2 3 1 1 2 1 2 2
8 8 8 7 7 7 6 6 6 6 6 6 6 6 5 5 4 3 3 3 2 1 1 2 1 1 1 2 3 2 2 2
8 8 8 8 7 7 6 7 7 6 6 6 6 6 6 6 5 4 4 3 2 1 1 2 3 3 4 2 1 1 2 1
8 8 8 8 7 7 7 7 7 7 6 7 6 6 6 6 5 5 4 3 1 1 1 1 1 1 3 3 2 2 1 1
8 8 8 7 7 7 6 6 7 6 6 7 7 6 6 6 6 5 5 4 2 1 1 1 1 1 1 2 2 2 2 2
9 8 8 8 8 7 7 6 6 6 6 6 6 6 6 6 6 5 5 4 3 2 1 1 1 1 1 2 3 3 3 2
8 8 8 8 7 7 6 6 6 6 6 6 6 6 6 6 5 5 5 5 4 3 2 1 1 1 2 3 3 2 4 4